User: anonymous   Login
Location: Unspecified
(0.0000°N, 0.0000°E)
Time: 01:11:11
(UTC+00:00)
Language:

GGSE 1 - Orbit

View from above orbital plane
View from above orbital plane
View from above satellite
View from above satellite

Ground track
Ground track

The orbit data is extracted from the following two-line orbital elements,

1   728U 64001B   18265.37628795 -.00000024 +00000-0 +21026-4 0  9999
2   728 069.9076 162.7902 0012818 012.5506 347.5917 13.97121341785055
Epoch (UTC): 22 September 2018 09:01:51
Eccentricity: 0.0012818
inclination: 69.9076°
perigee height: 894 km
apogee height: 913 km
right ascension of ascending node: 162.7902°
argument of perigee: 12.5506°
revolutions per day: 13.97121341
mean anomaly at epoch: 347.5917°
orbit number at epoch: 78505

The dashed part of the orbit path shows where the satellite is in the earth's shadow,  

DLR